Location: Casteau
(50.5142°N, 4.0161°E)
Time: 05:10:28
(UTC+00:00)

Exosat Rocket - Pass Details

Date: 18 September 2020
Orbit: 761 x 2514 km, 72.3° (Epoch: 22 October)

Event Time Altitude Azimuth Distance (km) Brightness Sun altitude
Rises 20:59:53 0° 221° (SW) 3,566 6.9 -28.1°
Reaches altitude 10° 21:02:36 10° 227° (SW) 2,484 6.1 -28.4°
Maximum altitude 21:07:49 50° 303° (WNW) 979 4.3 -29.0°
Drops below altitude 10° 21:12:42 10° 20° (NNE) 2,321 6.3 -29.6°
Sets 21:15:10 0° 26° (NNE) 3,307 7.1 -29.8°
